Location: Wapato
(46.4478°N, 120.4212°W)
Time: 09:43:24
(UTC+00:00)

DX 1 - Visible Passes

Search period start: 09 June 2026 00:00
Search period end: 19 June 2026 00:00
Orbit: 594 x 602 km, 98.4° (Epoch: 9 June)

Date Brightness Start Highest point End Pass type
(mag) Time Alt. Az. Time Alt. Az. Time Alt. Az.
9 Jun ? 11:01:13 10° NNE 11:05:19 46° E 11:09:23 10° S visible
10 Jun ? 11:11:35 10° NNE 11:15:48 59° E 11:19:58 10° S visible
11 Jun ? 11:22:01 10° NNE 11:26:16 77° ESE 11:30:30 10° S visible
12 Jun ? 10:00:19 10° E 10:00:32 10° E 10:00:45 10° E visible
13 Jun ? 10:09:07 10° ENE 10:11:07 13° E 10:13:06 10° ESE visible
14 Jun ? 10:18:56 10° NE 10:21:40 17° E 10:24:23 10° SE visible
15 Jun ? 10:28:59 10° NE 10:32:13 21° E 10:35:24 10° SE visible
16 Jun ? 10:39:08 10° NE 10:42:44 26° E 10:46:17 10° SSE visible
17 Jun ? 10:49:23 10° NNE 10:53:14 33° E 10:57:03 10° SSE visible
18 Jun ? 10:59:40 10° NNE 11:03:43 41° E 11:07:43 10° S visible
